Regional Weather Roundup
Issued by NWS

Home | Current Version | Previous Version | Text Only | Print | Product List | Glossary Off
Versions: 1 2 3 4 5 6 7 8 9 10 11 12 13 14 15 16 17 18 19 20 21 22 23 24 25 26 27 28 29 30 31 32 33 34 35 36 37 38 39 40 41 42 43 44 45 46 47 48 49 50

000
ASUS43 KDMX 281401
RWRIA

WEATHER ROUNDUP FOR IOWA
NATIONAL WEATHER SERVICE DES MOINES IA
900 AM CDT WED JUN 28 2017

NOTE: "FAIR" INDICATES FEW OR NO CLOUDS BELOW 12,000 FEET WITH NO
SIGNIFICANT WEATHER AND/OR OBSTRUCTIONS TO VISIBILITY.

* - THESE STATIONS ARE NOT NWS STATIONS...THUS NOT UNDER NWS
QUALITY CONTROL.  THEY ALSO DO NOT REPORT WEATHER SUCH
AS PRECIPITATION OR FOG.

IAZ001>003-012>014-020>022-031>034-043>046-281500-
   NORTHWEST IOWA

CITY           SKY/WX    TMP DP  RH WIND       PRES   REMARKS
CARROLL *      CLOUDY    72  66  83 SW23G31   29.69S
CHEROKEE *     MOSUNNY   72  67  85 SW17G26   29.67S
DENISON *      CLOUDY    70  64  83 S13G21    29.72S
LE MARS *      CLOUDY    70  64  83 SW17G24   29.67S
ORANGE CITY *  PTSUNNY   70  66  88 SW21G26   29.66S
SHELDON *      PTSUNNY   70  64  83 SW17G23   29.63F
SIOUX CITY     CLOUDY    70  67  90 SW14G22   29.67F
SPENCER        SUNNY     72  64  76 S15G28    29.64F
STORM LAKE *   MOSUNNY   72  64  78 SW25      29.67F
$$

IAZ055>058-069>071-079>083-090>094-281500-
   SOUTHWEST IOWA

CITY           SKY/WX    TMP DP  RH WIND       PRES   REMARKS
ATLANTIC *     CLOUDY    73  66  78 S15G25    29.73F
AUDUBON *      PTSUNNY   70  64  83 S13G20    29.73F
CLARINDA *     PTSUNNY   70  66  88 S13G20    29.80F
COUNCIL BLFS * CLOUDY    72  68  88 S16G23    29.73F
CRESTON *      PTSUNNY   70  64  83 S22G30    29.80R
HARLAN  *      CLOUDY    70  66  88 S20G28    29.75F
LAMONI         CLOUDY    67  65  93 S15G21    29.81R
RED OAK *      CLOUDY    72  66  83 S16G23    29.75F
SHENANDOAH *   PTSUNNY   70  66  88 S15G25    29.76F
$$

IAZ047>049-059>061-072>074-084-281500-
   CENTRAL IOWA

CITY           SKY/WX    TMP DP  RH WIND       PRES   REMARKS
AMES           CLOUDY    70  65  84 S12       29.70S
ANKENY *       CLOUDY    72  61  68 S10G17    29.71F
BOONE *        CLOUDY    68  63  83 SW13      29.70S
CHARITON *     CLOUDY    72  61  68 S23G31    29.71F
DES MOINES     CLOUDY    73  61  65 S15       29.71F
GRINNELL*      CLOUDY    71  59  66 SW13      29.75R
KNOXVILLE *    CLOUDY    72  59  64 SW14G25   29.73R
MARSHALLTOWN   CLOUDY    69  63  81 SW9       29.71R
NEWTON *       CLOUDY    72  59  64 SW15G22   29.73S
PELLA *        CLOUDY    73  58  60 SW12G21   29.74R
PERRY *          N/A     70  66  85 S18       29.70S
$$

IAZ004>006-015-016-023>025-035-036-281500-
   NORTH CENTRAL IOWA

CITY           SKY/WX    TMP DP  RH WIND       PRES   REMARKS
ALGONA *       CLOUDY    70  66  88 S17G23    29.67F
CLARION *        N/A     70  66  88 SW13      29.69F
ESTHERVILLE    CLOUDY    71  64  78 S17G28    29.62F
FORT DODGE *   CLOUDY    70  63  78 S13G20    29.69F
MASON CITY     CLOUDY    68  62  81 S9        29.72R
FOREST CITY *    N/A     70  61  73 SW13G18   29.69S
WEBSTER CITY * PTSUNNY   68  64  88 SW13      29.67F
IOWA FALLS *     N/A     69  63  82 SW9       29.74R
$$

IAZ007>011-017>019-026>030-037>042-050>054-066-281500-
   NORTHEAST IOWA

CITY           SKY/WX    TMP DP  RH WIND       PRES   REMARKS
CEDAR RAPIDS   CLOUDY    66  66 100 SE15G21   29.77F
CHARLES CITY * CLOUDY    64  64 100 SE9       29.75S FOG
CLINTON *      TSTM      63  62  97 S9        29.95S FOG
DECORAH *      CLOUDY    64  63  94 S12G18    29.76S
DUBUQUE        CLOUDY    63  61  93 S16G23    29.86F
MONTICELLO *   CLOUDY    66  64  94 SE15G22   29.82F
OELWEIN *      CLOUDY    66  66 100 SE20G26   29.77R
WATERLOO       CLOUDY    67  64  90 S15       29.73R
$$

IAZ064-065-067-068-078-281500-
   EAST CENTRAL IOWA

CITY           SKY/WX    TMP DP  RH WIND       PRES   REMARKS
IOWA CITY      CLOUDY    68  65  90 SE15      29.83F
MT. PLEASANT * CLOUDY    71  64  77 S13G21    29.88S
MUSCATINE *    CLOUDY    66  64  94 SE9       29.88F
QUAD CITIES    TSTM      65  62  90 E3        29.94R FOG
$$

IAZ062-063-075>077-085>089-095>099-281500-
   SOUTHEAST IOWA

CITY           SKY/WX    TMP DP  RH WIND       PRES   REMARKS
BURLINGTON     CLOUDY    71  66  84 S18G24    29.91S
FAIRFIELD *    CLOUDY    73  63  68 S20G25    29.85S
FORT MADISON * CLOUDY    72  64  78 S14       29.92F
KEOKUK *       CLOUDY    72  64  78 SW9       29.92S
OSKALOOSA *    LGT RAIN  70  65  83 S20       29.77F
OTTUMWA        LGT RAIN  72  66  81 S18G24    29.81F
WASHINGTON *   PTSUNNY   72  66  83 S15       29.84F
$$

ABBREVIATIONS USED IN REMARKS
   TC - TEMPERATURES IN CELSIUS
  WCI - WIND CHILL INDEX
   HX - HEAT INDEX
  VSB - VISIBILITY
$$





USA.gov is the U.S. government's official web portal to all federal, state and local government web resources and services.